NJE149D LIPB-ESMS

Flight info

Callsign NJE149D
Flight time 1h 35m
Altitude 40000
Route NAXAV DCT BRENO M726 KENIG N746 MAG M736 BAKDO P12 ARGAD Z400 BAKLI
Aircraft CL60/M-SBDE1E2E3FGHIJ4J5J7M3RWXYZ/LB1V1D1

Departure

Time 2026-04-26 16:12
Airport Bolzano Airport (LIPB)

Arrival

Time 2026-04-26 17:48
Airport Malmö Sturup Airport (ESMS)
Time Latitude Longitude Altitude Speed Heading
2026-04-26 15:05 46.46293 11.32890 855 ft 0 kts 101°
2026-04-26 16:06 46.46285 11.32906 855 ft 3 kts 151°
2026-04-26 16:06 46.46276 11.32907 855 ft 1 kts 194°
2026-04-26 16:06 46.46275 11.32887 854 ft 3 kts 308°
2026-04-26 16:06 46.46287 11.32855 854 ft 3 kts 297°
2026-04-26 16:07 46.46306 11.32843 854 ft 5 kts 353°
2026-04-26 16:07 46.46364 11.32851 853 ft 8 kts 11°
2026-04-26 16:07 46.46424 11.32868 853 ft 9 kts
2026-04-26 16:07 46.46491 11.32884 853 ft 9 kts
2026-04-26 16:08 46.46556 11.32902 853 ft 9 kts 10°
2026-04-26 16:08 46.46605 11.32914 853 ft 6 kts 11°
2026-04-26 16:08 46.46648 11.32925 853 ft 6 kts
2026-04-26 16:08 46.46673 11.32921 852 ft 0 kts 315°
2026-04-26 16:09 46.46679 11.32903 852 ft 5 kts 279°
2026-04-26 16:09 46.46685 11.32849 852 ft 5 kts 278°
2026-04-26 16:09 46.46677 11.32810 852 ft 4 kts 195°
2026-04-26 16:10 46.46658 11.32807 851 ft 0 kts 188°
2026-04-26 16:12 46.46613 11.32795 851 ft 30 kts 190°
2026-04-26 16:12 46.46041 11.32646 850 ft 131 kts 189°
2026-04-26 16:12 46.43709 11.31965 2148 ft 187 kts 191°
2026-04-26 16:13 46.42468 11.31503 3171 ft 193 kts 198°
2026-04-26 16:13 46.41216 11.30679 3735 ft 203 kts 205°
2026-04-26 16:13 46.39998 11.29765 4175 ft 197 kts 206°
2026-04-26 16:13 46.38791 11.28807 4515 ft 195 kts 208°
2026-04-26 16:14 46.37591 11.27963 4798 ft 191 kts 198°
2026-04-26 16:14 46.36345 11.27349 5127 ft 196 kts 197°
2026-04-26 16:14 46.33267 11.25887 6213 ft 264 kts 196°
2026-04-26 16:15 46.31504 11.25096 6974 ft 274 kts 196°
2026-04-26 16:15 46.29660 11.24273 7819 ft 280 kts 196°
2026-04-26 16:15 46.27809 11.23445 8652 ft 284 kts 197°
2026-04-26 16:16 46.23992 11.21735 10302 ft 294 kts 197°
2026-04-26 16:16 46.22035 11.20858 11061 ft 298 kts 198°
2026-04-26 16:16 46.20066 11.19975 11828 ft 300 kts 198°
2026-04-26 16:16 46.18094 11.19091 12563 ft 302 kts 198°
2026-04-26 16:17 46.16051 11.18431 13315 ft 305 kts 182°
2026-04-26 16:17 46.13958 11.19032 14075 ft 311 kts 154°
2026-04-26 16:17 46.12268 11.20958 14845 ft 318 kts 128°
2026-04-26 16:17 46.11339 11.23776 15616 ft 323 kts 101°
2026-04-26 16:18 46.11350 11.26981 16397 ft 327 kts 75°
2026-04-26 16:18 46.14104 11.31880 17929 ft 325 kts 22°
2026-04-26 16:19 46.18431 11.33862 19421 ft 335 kts 14°
2026-04-26 16:19 46.20708 11.34806 20204 ft 342 kts 14°
2026-04-26 16:19 46.25468 11.35707 21338 ft 361 kts 352°
2026-04-26 16:20 46.27988 11.35273 21844 ft 373 kts 351°
2026-04-26 16:20 46.33299 11.34393 22822 ft 396 kts 351°
2026-04-26 16:20 46.36077 11.33934 23276 ft 406 kts 351°
2026-04-26 16:21 46.38888 11.33472 23806 ft 415 kts 351°
2026-04-26 16:21 46.41778 11.32998 24443 ft 420 kts 351°
2026-04-26 16:21 46.44695 11.32520 25108 ft 424 kts 351°
2026-04-26 16:21 46.47642 11.32319 25754 ft 430 kts
2026-04-26 16:22 46.50617 11.32625 26501 ft 430 kts
2026-04-26 16:22 46.53605 11.32947 27329 ft 428 kts
2026-04-26 16:22 46.56568 11.33261 28169 ft 425 kts
2026-04-26 16:22 46.59493 11.33572 28981 ft 422 kts
2026-04-26 16:23 46.62430 11.33883 29742 ft 419 kts
2026-04-26 16:23 46.65346 11.34193 30468 ft 417 kts
2026-04-26 16:23 46.68219 11.34497 31143 ft 416 kts
2026-04-26 16:23 46.71107 11.34803 31780 ft 415 kts
2026-04-26 16:24 46.73934 11.35103 32372 ft 413 kts
2026-04-26 16:24 46.76815 11.35409 32937 ft 413 kts
2026-04-26 16:24 46.79672 11.35712 33454 ft 412 kts
2026-04-26 16:24 46.82508 11.36013 33940 ft 412 kts
2026-04-26 16:25 46.85345 11.36314 34425 ft 412 kts
2026-04-26 16:25 46.88225 11.36620 34903 ft 411 kts
2026-04-26 16:25 46.91039 11.36919 35308 ft 410 kts
2026-04-26 16:25 46.93872 11.37221 35696 ft 409 kts
2026-04-26 16:26 46.96709 11.37523 36065 ft 408 kts
2026-04-26 16:26 46.99503 11.37814 36411 ft 407 kts
2026-04-26 16:26 47.02329 11.38098 36741 ft 407 kts 360°
2026-04-26 16:26 47.05129 11.38379 37149 ft 406 kts 360°
2026-04-26 16:27 47.07939 11.38662 37556 ft 405 kts
2026-04-26 16:27 47.10747 11.38945 37944 ft 404 kts
2026-04-26 16:27 47.13554 11.39227 38325 ft 404 kts
2026-04-26 16:27 47.16339 11.39508 38651 ft 403 kts
2026-04-26 16:28 47.19133 11.39790 38953 ft 402 kts
2026-04-26 16:28 47.21895 11.40069 39247 ft 401 kts
2026-04-26 16:28 47.24685 11.40223 39491 ft 399 kts 356°
2026-04-26 16:28 47.27471 11.40225 39716 ft 399 kts 356°
2026-04-26 16:29 47.30210 11.40227 39921 ft 399 kts 356°
2026-04-26 16:29 47.33011 11.40231 40131 ft 399 kts 356°
2026-04-26 16:29 47.38557 11.40238 40236 ft 406 kts 356°
2026-04-26 16:30 47.44253 11.40177 40248 ft 414 kts 356°
2026-04-26 16:30 47.50063 11.40107 40245 ft 422 kts 356°
2026-04-26 16:31 47.55968 11.40038 40240 ft 429 kts 356°
2026-04-26 16:31 47.61942 11.39961 40234 ft 435 kts 355°
2026-04-26 16:32 47.67994 11.39239 40216 ft 438 kts 351°
2026-04-26 16:32 47.74097 11.38397 40210 ft 442 kts 351°
2026-04-26 16:33 47.80203 11.37558 40209 ft 443 kts 352°
2026-04-26 16:33 47.86312 11.36752 40194 ft 444 kts 353°
2026-04-26 16:34 47.92455 11.36221 40194 ft 443 kts 353°
2026-04-26 16:34 47.98598 11.35696 40205 ft 443 kts 354°
2026-04-26 16:35 48.04758 11.35169 40220 ft 443 kts 354°
2026-04-26 16:35 48.10835 11.34262 40218 ft 441 kts 349°
2026-04-26 16:36 48.16922 11.33060 40219 ft 442 kts 349°
2026-04-26 16:36 48.22992 11.31865 40212 ft 442 kts 349°
2026-04-26 16:37 48.29094 11.30745 40206 ft 441 kts 351°
2026-04-26 16:37 48.35176 11.29787 40196 ft 441 kts 351°
2026-04-26 16:38 48.41275 11.28822 40202 ft 441 kts 351°
2026-04-26 16:38 48.47324 11.27863 40217 ft 440 kts 351°
2026-04-26 16:39 48.53392 11.26899 40217 ft 441 kts 351°
2026-04-26 16:39 48.59499 11.25926 40215 ft 441 kts 351°
2026-04-26 16:40 48.65568 11.24957 40218 ft 440 kts 351°
2026-04-26 16:40 48.71621 11.23986 40221 ft 440 kts 351°
2026-04-26 16:41 48.77732 11.23003 40222 ft 440 kts 351°
2026-04-26 16:41 48.83791 11.22037 40223 ft 440 kts 352°
2026-04-26 16:42 48.89893 11.21900 40220 ft 442 kts 357°
2026-04-26 16:42 48.96033 11.21946 40217 ft 443 kts 357°
2026-04-26 16:43 49.02160 11.21989 40215 ft 443 kts 357°
2026-04-26 16:43 49.08310 11.22030 40220 ft 442 kts 357°
2026-04-26 16:44 49.14449 11.22069 40220 ft 442 kts 357°
2026-04-26 16:44 49.20568 11.22107 40220 ft 441 kts 357°
2026-04-26 16:45 49.26700 11.22156 40224 ft 441 kts 357°
2026-04-26 16:45 49.32786 11.22207 40223 ft 441 kts 357°
2026-04-26 16:46 49.38937 11.22259 40227 ft 441 kts 357°
2026-04-26 16:46 49.45020 11.22309 40226 ft 441 kts 357°
2026-04-26 16:47 49.51141 11.22360 40225 ft 441 kts 357°
2026-04-26 16:47 49.57271 11.22400 40229 ft 440 kts 357°
2026-04-26 16:48 49.63365 11.22411 40225 ft 440 kts 357°
2026-04-26 16:48 49.69490 11.22424 40223 ft 440 kts 357°
2026-04-26 16:49 49.75566 11.22436 40224 ft 440 kts 357°
2026-04-26 16:49 49.81676 11.22465 40230 ft 440 kts 357°
2026-04-26 16:50 49.87783 11.22500 40232 ft 439 kts 357°
2026-04-26 16:50 49.93854 11.22536 40236 ft 439 kts 357°
2026-04-26 16:51 49.99964 11.22572 40235 ft 439 kts 357°
2026-04-26 16:51 50.06064 11.22608 40240 ft 439 kts 357°
2026-04-26 16:52 50.11120 11.22638 40240 ft 439 kts 357°
2026-04-26 16:52 50.17930 11.22678 40241 ft 439 kts 357°
2026-04-26 16:53 50.24010 11.22714 40242 ft 439 kts 357°
2026-04-26 16:53 50.30107 11.23010 40242 ft 442 kts
2026-04-26 16:54 50.36128 11.24851 40238 ft 444 kts
2026-04-26 16:54 50.42164 11.26796 40235 ft 444 kts
2026-04-26 16:55 50.48177 11.28740 40235 ft 444 kts
2026-04-26 16:55 50.54227 11.30701 40232 ft 444 kts
2026-04-26 16:56 50.63260 11.33638 40248 ft 444 kts
2026-04-26 16:57 50.69302 11.35610 40269 ft 444 kts
2026-04-26 16:57 50.78326 11.38564 40277 ft 443 kts
2026-04-26 16:58 50.83351 11.40214 40282 ft 443 kts
2026-04-26 16:59 50.93362 11.43513 40285 ft 444 kts
2026-04-26 17:00 51.05430 11.47509 40276 ft 444 kts
2026-04-26 17:00 51.14447 11.50509 40279 ft 443 kts
2026-04-26 17:01 51.20468 11.52519 40283 ft 443 kts
2026-04-26 17:01 51.26461 11.54525 40278 ft 443 kts
2026-04-26 17:02 51.32461 11.56538 40272 ft 443 kts
2026-04-26 17:02 51.38500 11.58571 40271 ft 443 kts
2026-04-26 17:03 51.44478 11.60588 40272 ft 442 kts
2026-04-26 17:03 51.50493 11.62623 40267 ft 442 kts
2026-04-26 17:04 51.56485 11.64655 40268 ft 441 kts
2026-04-26 17:04 51.62506 11.66703 40268 ft 441 kts
2026-04-26 17:05 51.68478 11.68740 40275 ft 442 kts
2026-04-26 17:05 51.74489 11.70795 40276 ft 442 kts
2026-04-26 17:06 51.80459 11.72842 40272 ft 442 kts
2026-04-26 17:06 51.86460 11.74906 40276 ft 441 kts
2026-04-26 17:07 51.92406 11.76956 40276 ft 440 kts
2026-04-26 17:07 51.98382 11.79018 40274 ft 440 kts
2026-04-26 17:08 52.04430 11.80306 40274 ft 437 kts
2026-04-26 17:08 52.10428 11.81320 40278 ft 437 kts
2026-04-26 17:09 52.15456 11.82175 40278 ft 437 kts
2026-04-26 17:09 52.22499 11.83380 40272 ft 437 kts
2026-04-26 17:10 52.28534 11.84421 40270 ft 436 kts
2026-04-26 17:10 52.34539 11.85461 40276 ft 436 kts
2026-04-26 17:11 52.40532 11.86501 40272 ft 436 kts
2026-04-26 17:11 52.46560 11.87549 40277 ft 436 kts
2026-04-26 17:12 52.55558 11.89122 40279 ft 436 kts
2026-04-26 17:13 52.64539 11.91255 40288 ft 441 kts 12°
2026-04-26 17:14 52.73184 11.96515 40291 ft 444 kts 16°
2026-04-26 17:14 52.81722 12.02278 40292 ft 445 kts 18°
2026-04-26 17:15 52.90249 12.08156 40296 ft 444 kts 18°
2026-04-26 17:16 52.95946 12.12103 40297 ft 444 kts 18°
2026-04-26 17:16 53.01640 12.16066 40287 ft 444 kts 18°
2026-04-26 17:16 53.04484 12.18051 40052 ft 448 kts 18°
2026-04-26 17:17 53.07319 12.20037 39654 ft 443 kts 18°
2026-04-26 17:17 53.10118 12.22003 39283 ft 437 kts 18°
2026-04-26 17:17 53.12918 12.23972 38909 ft 436 kts 17°
2026-04-26 17:17 53.15662 12.25903 38545 ft 435 kts 18°
2026-04-26 17:18 53.18462 12.27877 38177 ft 434 kts 17°
2026-04-26 17:18 53.21227 12.29829 37803 ft 434 kts 17°
2026-04-26 17:18 53.23990 12.31784 37416 ft 434 kts 17°
2026-04-26 17:18 53.26776 12.33758 37039 ft 434 kts 17°
2026-04-26 17:19 53.32299 12.37680 36348 ft 437 kts 17°
2026-04-26 17:19 53.35111 12.39682 35975 ft 437 kts 17°
2026-04-26 17:19 53.37895 12.41668 35603 ft 438 kts 17°
2026-04-26 17:20 53.40668 12.43647 35234 ft 438 kts 17°
2026-04-26 17:20 53.42512 12.44966 34988 ft 439 kts 17°
2026-04-26 17:20 53.46275 12.47662 34462 ft 440 kts 17°
2026-04-26 17:20 53.49062 12.49662 34089 ft 441 kts 17°
2026-04-26 17:21 53.51895 12.51697 33609 ft 442 kts 17°
2026-04-26 17:21 53.54700 12.53716 33117 ft 442 kts 17°
2026-04-26 17:21 53.57513 12.55743 32620 ft 442 kts 17°
2026-04-26 17:21 53.60319 12.57769 32124 ft 443 kts 17°
2026-04-26 17:22 53.63141 12.59809 31626 ft 444 kts 17°
2026-04-26 17:22 53.65966 12.61855 31128 ft 444 kts 17°
2026-04-26 17:22 53.68806 12.63914 30627 ft 444 kts 17°
2026-04-26 17:22 53.71639 12.65972 30122 ft 445 kts 18°
2026-04-26 17:23 53.74455 12.68019 29627 ft 446 kts 18°
2026-04-26 17:23 53.77303 12.70095 29128 ft 444 kts 18°
2026-04-26 17:23 53.80117 12.72149 28636 ft 442 kts 18°
2026-04-26 17:23 53.82890 12.74177 28145 ft 438 kts 18°
2026-04-26 17:24 53.85658 12.76204 27652 ft 435 kts 18°
2026-04-26 17:24 53.88432 12.78238 27159 ft 432 kts 18°
2026-04-26 17:24 53.91167 12.80246 26655 ft 429 kts 18°
2026-04-26 17:24 53.93898 12.82254 26150 ft 426 kts 18°
2026-04-26 17:25 53.96592 12.84238 25649 ft 423 kts 18°
2026-04-26 17:25 53.99246 12.86194 25153 ft 420 kts 18°
2026-04-26 17:25 54.01922 12.88170 24654 ft 416 kts 18°
2026-04-26 17:25 54.04538 12.90104 24158 ft 413 kts 18°
2026-04-26 17:26 54.07167 12.92051 23650 ft 409 kts 18°
2026-04-26 17:26 54.09754 12.93969 23157 ft 405 kts 18°
2026-04-26 17:26 54.12305 12.95863 22657 ft 402 kts 18°
2026-04-26 17:26 54.14869 12.97769 22152 ft 399 kts 18°
2026-04-26 17:27 54.17360 12.99623 21662 ft 396 kts 18°
2026-04-26 17:27 54.19867 13.01490 21161 ft 393 kts 18°
2026-04-26 17:27 54.22364 13.03354 20660 ft 389 kts 18°
2026-04-26 17:27 54.24833 13.05198 20162 ft 386 kts 18°
2026-04-26 17:28 54.27248 13.07006 19667 ft 382 kts 18°
2026-04-26 17:28 54.29668 13.08818 19166 ft 378 kts 18°
2026-04-26 17:28 54.32085 13.10631 18663 ft 375 kts 18°
2026-04-26 17:28 54.34456 13.12411 18168 ft 372 kts 18°
2026-04-26 17:29 54.36786 13.14162 17672 ft 369 kts 18°
2026-04-26 17:29 54.38364 13.15350 17336 ft 367 kts 18°
2026-04-26 17:29 54.41449 13.17675 16670 ft 364 kts 18°
2026-04-26 17:29 54.43742 13.19405 16173 ft 361 kts 18°
2026-04-26 17:30 54.46003 13.21114 15677 ft 357 kts 18°
2026-04-26 17:30 54.48257 13.22819 15181 ft 354 kts 18°
2026-04-26 17:30 54.50520 13.24533 14677 ft 351 kts 18°
2026-04-26 17:30 54.52717 13.26199 14184 ft 348 kts 18°
2026-04-26 17:31 54.54898 13.27857 13690 ft 341 kts 18°
2026-04-26 17:31 54.57058 13.29502 13188 ft 332 kts 18°
2026-04-26 17:31 54.59118 13.31072 12700 ft 324 kts 18°
2026-04-26 17:31 54.61169 13.32636 12201 ft 318 kts 19°
2026-04-26 17:32 54.63149 13.34147 11706 ft 311 kts 19°
2026-04-26 17:32 54.65105 13.35641 11186 ft 304 kts 19°
2026-04-26 17:32 54.67006 13.37096 10735 ft 293 kts 19°
2026-04-26 17:32 54.68813 13.38482 10504 ft 282 kts 19°
2026-04-26 17:33 54.70580 13.39837 10263 ft 272 kts 19°
2026-04-26 17:33 54.72280 13.41141 10019 ft 266 kts 19°
2026-04-26 17:33 54.73970 13.42435 9772 ft 267 kts 19°
2026-04-26 17:34 54.77351 13.45027 9307 ft 265 kts 19°
2026-04-26 17:34 54.79017 13.46309 9231 ft 258 kts 19°
2026-04-26 17:34 54.80671 13.47580 9109 ft 263 kts 19°
2026-04-26 17:34 54.82354 13.48875 8979 ft 263 kts 19°
2026-04-26 17:35 54.84011 13.50151 8854 ft 263 kts 19°
2026-04-26 17:35 54.85677 13.51437 8730 ft 263 kts 19°
2026-04-26 17:35 54.87357 13.52735 8606 ft 262 kts 19°
2026-04-26 17:35 54.89008 13.54011 8482 ft 262 kts 19°
2026-04-26 17:36 54.90691 13.55295 8355 ft 261 kts 16°
2026-04-26 17:36 54.92437 13.55784 8235 ft 253 kts 352°
2026-04-26 17:36 54.94161 13.55271 8106 ft 252 kts 346°
2026-04-26 17:36 54.95887 13.54687 7979 ft 252 kts 347°
2026-04-26 17:37 54.97602 13.54116 7855 ft 252 kts 347°
2026-04-26 17:37 54.99313 13.53545 7731 ft 252 kts 347°
2026-04-26 17:37 55.01019 13.52976 7608 ft 252 kts 346°
2026-04-26 17:38 55.04466 13.51825 7088 ft 250 kts 347°
2026-04-26 17:38 55.06153 13.51261 6877 ft 248 kts 347°
2026-04-26 17:38 55.07858 13.50691 6674 ft 248 kts 347°
2026-04-26 17:38 55.09544 13.50126 6472 ft 248 kts 347°
2026-04-26 17:39 55.11244 13.49556 6276 ft 248 kts 347°
2026-04-26 17:39 55.12916 13.48996 6077 ft 247 kts 346°
2026-04-26 17:39 55.14555 13.48447 5877 ft 247 kts 347°
2026-04-26 17:39 55.16222 13.47887 5672 ft 246 kts 346°
2026-04-26 17:40 55.17891 13.47326 5474 ft 246 kts 347°
2026-04-26 17:40 55.19021 13.46946 5335 ft 246 kts 347°
2026-04-26 17:40 55.21261 13.46193 5058 ft 245 kts 347°
2026-04-26 17:40 55.22931 13.45631 4866 ft 240 kts 346°
2026-04-26 17:41 55.24520 13.45098 4682 ft 229 kts 346°
2026-04-26 17:41 55.26035 13.44590 4498 ft 219 kts 346°
2026-04-26 17:41 55.27499 13.44098 4301 ft 210 kts 346°
2026-04-26 17:41 55.28915 13.43620 4045 ft 206 kts 346°
2026-04-26 17:42 55.30308 13.43149 3795 ft 201 kts 346°
2026-04-26 17:42 55.31653 13.42695 3575 ft 196 kts 346°
2026-04-26 17:42 55.32952 13.42258 3486 ft 183 kts 346°
2026-04-26 17:42 55.34227 13.41825 3394 ft 189 kts 346°
2026-04-26 17:43 55.35525 13.41398 3287 ft 190 kts 347°
2026-04-26 17:43 55.36814 13.41076 3194 ft 182 kts 350°
2026-04-26 17:43 55.38021 13.40823 3088 ft 174 kts 350°
2026-04-26 17:43 55.39216 13.40576 2847 ft 172 kts 350°
2026-04-26 17:44 55.40386 13.40335 2630 ft 169 kts 351°
2026-04-26 17:44 55.41563 13.40093 2398 ft 169 kts 351°
2026-04-26 17:44 55.42673 13.39868 2159 ft 152 kts 351°
2026-04-26 17:44 55.43706 13.39660 1981 ft 149 kts 351°
2026-04-26 17:45 55.44727 13.39449 1767 ft 147 kts 351°
2026-04-26 17:45 55.45720 13.39244 1599 ft 135 kts 351°
2026-04-26 17:45 55.46609 13.39067 1424 ft 125 kts 351°
2026-04-26 17:45 55.47443 13.38891 1205 ft 120 kts 350°
2026-04-26 17:46 55.48266 13.38738 1043 ft 118 kts 351°
2026-04-26 17:46 55.49083 13.38601 904 ft 118 kts 352°
2026-04-26 17:46 55.49908 13.38427 743 ft 118 kts 351°
2026-04-26 17:46 55.50721 13.38243 577 ft 118 kts 350°
2026-04-26 17:47 55.51524 13.38054 414 ft 116 kts 351°
2026-04-26 17:47 55.52059 13.37944 318 ft 117 kts 352°
2026-04-26 17:47 55.53091 13.37726 237 ft 96 kts 353°
2026-04-26 17:47 55.53644 13.37621 233 ft 69 kts 353°
2026-04-26 17:48 55.54073 13.37526 224 ft 42 kts 350°
2026-04-26 17:48 55.54198 13.37499 220 ft 13 kts 341°
2026-04-26 17:48 55.54222 13.37416 221 ft 6 kts 264°
2026-04-26 17:48 55.54218 13.37342 221 ft 5 kts 263°
2026-04-26 17:49 55.54213 13.37279 221 ft 4 kts 263°
2026-04-26 17:49 55.54211 13.37239 222 ft 3 kts 262°
2026-04-26 17:49 55.54205 13.37169 223 ft 8 kts 262°
2026-04-26 17:49 55.54185 13.37068 225 ft 8 kts 249°
2026-04-26 17:50 55.54175 13.36965 225 ft 8 kts 262°
2026-04-26 17:50 55.54166 13.36842 225 ft 10 kts 265°
2026-04-26 17:50 55.54159 13.36731 227 ft 7 kts 263°
2026-04-26 17:50 55.54154 13.36663 228 ft 4 kts 264°
2026-04-26 17:51 55.54162 13.36621 229 ft 3 kts 329°
2026-04-26 17:51 55.54184 13.36609 229 ft 4 kts 342°
2026-04-26 17:51 55.54213 13.36621 229 ft 5 kts 72°
2026-04-26 17:51 55.54215 13.36632 229 ft 0 kts 79°